User: anonymous   Login
Location: Unspecified
(0.0000°N, 0.0000°E)
Time: 23:19:28
(UTC+02:00)
Language:

AO-40 - Orbit

View from above orbital plane
View from above orbital plane
View from above satellite
View from above satellite

Ground track
Ground track

The orbit data is extracted from the following two-line orbital elements,

1 26609U 00072B   14296.21284154 -.00000313  00000-0  00000+0 0   629
2 26609 008.5590 026.5545 7944622 162.8821 262.1871 01.25585874 64171
Epoch (UTC): 23 October 2014 05:06:29
Eccentricity: 0.7944622
inclination: 8.5590°
perigee height: 1080 km
apogee height: 58740 km
right ascension of ascending node: 26.5545°
argument of perigee: 162.8821°
revolutions per day: 1.25585874
mean anomaly at epoch: 262.1871°
orbit number at epoch: 6417

The dashed part of the orbit path shows where the satellite is in the earth's shadow,  

DLR